Location: McFarlands Corners
(41.4117°N, 81.3382°W)
Time: 12:50:46
(UTC+00:00)

Tiros 1 - Pass Details

Date: 19 February 2026
Orbit: 618 x 650 km, 48.4° (Epoch: 16 March)

Event Time Altitude Azimuth Distance (km) Brightness Sun altitude
Rises 11:51:00 0° 194° (SSW) 2,914 10.5 -5.2°
Reaches altitude 10° 11:53:59 10° 174° (S) 2,004 9.9 -4.6°
Maximum altitude 11:56:59 17° 133° (SE) 1,576 10.1 -4.1°
Drops below altitude 10° 11:59:59 10° 92° (E) 1,998 11.5 -3.5°
Sets 12:02:57 0° 73° (ENE) 2,902 11.7 -3.0°
